Location: Fisheating Creek Campgrounds
(26.9333°N, 81.3167°W)
Time: 02:26:01
(UTC-04:00)

Cosmos 2221 Rocket - Visible Passes

Search period start: 05 August 2015 00:00
Search period end: 15 August 2015 00:00
Orbit: 622 x 648 km, 82.5° (Epoch: 03 August)

Date Brightness Start Highest point End Pass type
(mag) Time Alt. Az. Time Alt. Az. Time Alt. Az.
07 Aug 6.4 05:40:36 10° SE 05:43:36 18° E 05:46:47 10° NE visible
08 Aug 4.9 06:01:37 10° SSE 06:05:50 43° E 06:10:09 10° NNE visible
09 Aug 3.6 06:23:39 10° S 06:28:09 77° W 06:32:41 10° N visible
10 Aug 6.5 05:10:16 10° ESE 05:12:37 15° E 05:15:12 10° NE visible
11 Aug 5.3 05:30:49 10° SSE 05:34:51 34° E 05:38:58 10° NNE visible
12 Aug 3.7 05:52:37 10° S 05:57:08 84° E 06:01:41 10° N visible
13 Aug 6.6 04:40:20 10° ESE 04:41:38 11° E 04:43:15 10° ENE visible
13 Aug 4.1 06:15:17 10° SSW 06:19:31 39° W 06:23:47 10° NNW visible
14 Aug 5.6 05:00:06 10° SSE 05:03:52 27° E 05:07:44 10° NNE visible
